Weather observations for the past three days for
Buffalo
Metric (Imperial)
Date Time (mdt) Wind (kph) Vis. (km) Weather Sky Cond. Temperature (ºC) Relative Humidity Wind Chill (°C) Heat Index (°C) Pressure Precipitation (cm)
Air Dwpt 6 hour altimeter (cm) sea level (mb) 1 hr 3 hr 6 hr
Max. Min.
07 02:56 NE 15 0.00 NULL NULL 2.2 -7.2 50% -1 75.72 1010.7
07 01:56 NE 13 0.00 NULL NULL 3.3 -6.1 51% 0 75.72 1010.8
07 00:56 Calm 0.00 NULL NULL 6.7 -6.1 40% 75.74 1010.5
06 23:56 NW 6 0.00 NULL NULL 5.6 -5.6 12.2 5 45% 75.77 1011.1
06 22:56 S 6 0.00 NULL NULL 6.7 -6.1 40% 75.77 1011.3
06 21:56 NE 11 0.00 NULL NULL 6.1 -6.7 40% 4 75.77 1011.4
06 20:56 N 11 0.00 NULL NULL 8.3 -7.2 33% 7 75.79 1011.6
06 19:56 NW 17 0.00 NULL NULL 8.9 -6.1 34% 7 75.79 1012.0
06 18:56 NW 11 0.00 NULL NULL 11.1 -7.2 27% 75.82 1012.6
06 17:56 W 22 G 35 0.00 NULL NULL 12.2 -8.3 13.3 8.9 23% 75.84 1013.1
06 16:56 W 28 G 43 0.00 NULL NULL 11.7 -9.4 22% 75.9 1013.7
06 15:56 W 26 G 41 0.00 NULL NULL 12.2 -8.3 23% 75.95 1014.5
06 14:56 NW 26 G 43 0.00 NULL NULL 11.1 -7.8 26% 76.05 1015.9
06 13:56 W 35 G 48 0.00 Breezy NULL 10 -8.9 26% 7 76.1 1016.7
06 12:56 W 30 G 43 0.00 NULL NULL 10 -8.3 27% 7 76.15 1017.4
06 11:56 NW 26 G 39 0.00 NULL NULL 8.9 -9.4 8.9 -5.6 27% 6 76.25 1018.5
06 10:56 W 20 G 41 0.00 NULL NULL 7.8 -9.4 29% 5 76.28 1019.0
06 09:56 W 28 G 48 0.00 NULL NULL 7.2 -10 29% 3 76.3 1019.3
06 08:56 NW 28 0.00 NULL NULL 6.1 -8.3 35% 2 76.33 1019.5
06 07:56 W 28 G 35 0.00 NULL NULL 2.8 -7.2 48% -2 76.35 1020.1
06 06:56 W 15 0.00 NULL NULL -2.8 -6.7 75% -7 76.35 1020.7
06 05:56 W 15 0.00 NULL NULL -5.6 -8.9 -1.7 -6.1 78% -11 76.33 1020.6
06 04:56 W 15 0.00 NULL NULL -5.6 -8.9 78% -11 76.33 1020.2
06 03:56 W 13 0.00 NULL NULL -4.4 -8.9 71% -9 76.3 1020.1
06 02:56 W 15 0.00 NULL NULL -4.4 -8.3 75% -9 76.3 1020.0
06 01:56 W 19 0.00 NULL NULL -3.3 -8.3 69% -9 76.3 1019.7
06 00:56 NW 19 0.00 NULL NULL -3.3 -8.3 69% -9 76.3 1020.1
05 23:56 NW 13 0.00 NULL NULL -1.7 -8.3 5.6 -2.2 61% -6 76.3 1019.8
05 22:56 NW 11 0.00 NULL NULL -0.6 -8.9 54% -4 76.3 1019.7
05 21:56 N 17 0.00 NULL NULL 1.7 -7.8 50% -2 76.3 1019.4
05 20:56 NW 15 0.00 NULL NULL 3.3 -8.3 43% 0 76.28 1018.9
05 19:56 NW 22 0.00 NULL NULL 3.3 -7.8 44% -1 76.2 1017.8
05 18:56 NW 30 0.00 NULL NULL 5 -8.9 36% 0 76.15 1017.6
05 17:56 NW 31 0.00 NULL NULL 5.6 -8.9 7.2 5 35% 1 76.15 1017.6
05 16:56 NW 41 G 52 0.00 Breezy NULL 7.2 -7.8 34% 3 76.1 1016.9
05 15:56 N 39 G 59 0.00 Breezy NULL 6.1 -8.3 35% 1 76.1 1017.2
05 14:56 NW 33 G 50 0.00 Breezy NULL 6.7 -8.3 34% 2 76.1 1016.8
05 13:56 NW 31 G 48 0.00 NULL NULL 6.7 -7.8 35% 3 76.12 1017.0
05 12:56 NW 43 G 57 0.00 Windy NULL 5 -7.2 41% -0 76.1 1016.9
05 11:56 NW 37 G 54 0.00 Breezy NULL 5.6 -7.2 6.1 -2.8 40% 1 76.1 1016.5
05 10:56 NW 35 G 56 0.00 Breezy NULL 5 -7.2 41% 0 76.1 1016.4
05 09:56 NW 33 G 50 0.00 Breezy NULL 4.4 -7.2 43% -1 76.12 1016.4
05 08:56 NW 24 0.00 NULL NULL 3.9 -6.1 48% -0 76.15 1016.9
05 07:56 NW 26 0.00 NULL NULL 2.8 -5 57% -2 76.12 1016.8
05 06:56 NW 11 0.00 NULL NULL -0.6 -4.4 76% -4 76.07 1016.1
05 05:56 W 15 0.00 NULL NULL -2.2 -5 1.7 -5 81% -7 76.02 1015.6
05 04:56 NW 15 0.00 NULL NULL -3.3 -6.1 81% -8 76.05 1015.6
05 03:56 W 9 0.00 NULL NULL -3.9 -6.1 85% -7 76.05 1015.7
05 02:56 NW 9 0.00 NULL NULL -2.8 -6.1 78% -6 76.02 1015.5
05 01:56 N 19 0.00 NULL NULL -1.1 -5 75% -6 76.02 1015.2
05 00:56 NW 17 0.00 NULL NULL 0.6 -5.6 64% -4 76.02 1014.9
04 23:56 NW 22 0.00 NULL NULL 1.1 -5 10.6 1.1 64% -4 76 1014.5
04 22:56 N 19 0.00 NULL NULL 3.3 -5 55% -1 75.97 1013.9
04 21:56 N 15 0.00 NULL NULL 5 -4.4 51% 2 75.95 1013.6
04 20:56 N 22 0.00 NULL NULL 6.1 -5 45% 3 75.9 1012.8
04 19:56 N 19 0.00 NULL NULL 6.7 -3.9 47% 4 75.79 1011.6
04 18:56 N 35 0.00 Breezy NULL 8.9 -4.4 39% 5 75.74 1010.7
04 17:56 NW 43 G 59 0.00 Windy NULL 10 -3.9 12.2 9.4 38% 6 75.72 1010.3
04 16:56 N 43 G 57 0.00 Windy NULL 11.7 -3.9 34% 75.69 1009.8
04 15:56 NW 44 G 69 0.00 Windy NULL 11.7 -3.9 34% 75.72 1010.3
04 14:56 NW 50 G 70 0.00 Windy NULL 10.6 -3.3 38% 75.77 1010.5
04 13:56 NW 39 G 63 0.00 Breezy NULL 10.6 -2.8 39% 75.77 1010.4
04 12:56 NW 48 G 65 0.00 Windy NULL 11.1 -3.3 37% 75.77 1010.1
04 11:56 NW 46 G 63 0.00 Windy NULL 11.1 -3.3 11.1 6.7 37% 75.77 1010.4
04 10:56 NW 44 G 65 0.00 Windy NULL 11.1 -2.8 38% 75.77 1010.2
04 09:56 NW 37 G 56 0.00 Breezy NULL 9.4 -1.7 46% 6 75.77 1010.5
04 08:56 N 26 0.00 NULL NULL 7.8 0.6 61% 4 75.77 1010.4
04 07:56 NW 35 G 50 0.00 Breezy NULL 7.8 1.7 66% 4 75.69 1009.2
04 06:56 NW 31 0.00 NULL NULL 7.2 1.1 66% 3 75.67 1008.2
04 05:56 NW 28 0.00 NULL NULL 6.7 -1.1 12.8 5 58% 3 75.62 1007.7
04 04:56 N 22 0.00 NULL NULL 5.6 0 68% 2 75.59 1007.4
04 03:56 NW 9 0.00 NULL NULL 5 1.1 76% 3 75.49 1005.9
Date Time (mdt) Wind (kph) Vis. (km) Weather Sky Cond. Air Dwpt Max. Min. Relative Humidity Wind Chill (°C) Heat Index (°C) altimeter (cm) sea level (mb) 1 hr 3 hr 6 hr
6 hour
Temperature (ºC) Pressure Precipitation (cm)